FW3988 Weather Reports


time (UTC)temp
C
wind
direction
speed
KPH
gust
KPH
rain 1hr
cm
rain 24hr
cm
rain mn
cm
humidity
%
barometer
mb
20260903183030 33 221 4.8 12.9 0.00 0.00 0.00 67 1012.5
20260903181505 33 252 3.2 9.7 0.00 0.00 0.00 65 1012.6
20260903180149 33 216 1.6 8.0 0.00 0.00 0.00 65 1012.7
20260903174527 33 220 1.6 9.7 0.00 0.00 0.00 65 1012.9
20260903173018 33 223 1.6 12.9 0.00 0.00 0.00 65 1013.1
20260903171556 32 314 0.0 4.8 0.00 0.00 0.00 61 1013.2
20260903170232 32 9 1.6 4.8 0.00 0.00 0.00 64 1013.2
20260903164532 31 46 3.2 8.0 0.00 0.00 0.00 67 1013.0
20260903163014 30 69 1.6 6.4 0.00 0.00 0.00 69 1013.0
20260903161622 30 13 3.2 8.0 0.00 0.00 0.00 69 1012.8
20260903160146 29 31 1.6 3.2 0.00 0.00 0.00 70 1012.6
20260903154545 29 28 1.6 3.2 0.00 0.00 0.00 70 1012.6
20260903153025 29 30 3.2 6.4 0.00 0.00 0.00 69 1012.5
20260903151511 29 64 0.0 4.8 0.00 0.00 0.00 69 1012.5
20260903150005 28 65 0.0 3.2 0.00 0.00 0.00 75 1012.7
20260903144554 28 64 0.0 3.2 0.00 0.00 0.00 74 1012.7
20260903143050 28 64 0.0 3.2 0.00 0.00 0.00 74 1012.8
20260903141542 28 64 0.0 0.0 0.00 0.00 0.00 75 1012.8
20260903140005 27 64 0.0 3.2 0.00 0.00 0.00 77 1012.8
20260903134555 27 64 1.6 3.2 0.00 0.00 0.00 77 1012.6
20260903133056 27 34 1.6 4.8 0.00 0.00 0.00 78 1012.6
20260903131556 27 32 0.0 0.0 0.00 0.00 0.00 78 1012.3
20260903130152 27 32 0.0 3.2 0.00 0.00 0.00 78 1012.2
20260903124526 27 32 0.0 3.2 0.00 0.00 0.00 78 1012.1
20260903123031 27 32 1.6 3.2 0.00 0.00 0.00 79 1011.9
20260903121601 27 32 0.0 6.4 0.00 0.00 0.00 79 1011.7
20260903120139 27 32 1.6 4.8 0.00 0.00 0.00 79 1011.6
20260903114552 27 18 4.8 9.7 0.00 0.00 0.00 79 1011.5
20260903113022 27 5 3.2 8.0 0.00 0.00 0.00 78 1011.5
20260903111501 27 51 3.2 6.4 0.00 0.00 0.00 79 1011.6
20260903110146 27 10 3.2 6.4 0.00 0.00 0.00 80 1011.6
20260903104526 27 27 3.2 6.4 0.00 0.00 0.00 80 1011.5
20260903103012 27 5 3.2 6.4 0.00 0.00 0.00 80 1011.5
20260903101545 27 37 3.2 6.4 0.00 0.00 0.00 80 1011.5
20260903100138 27 39 1.6 6.4 0.00 0.00 0.00 80 1011.7
20260903094518 27 34 3.2 8.0 0.00 0.00 0.00 80 1011.7
20260903093031 27 51 3.2 6.4 0.00 0.00 0.00 80 1011.9
20260903091500 27 39 1.6 4.8 0.00 0.00 0.00 80 1012.1
20260903090004 27 38 0.0 4.8 0.00 0.00 0.00 82 1012.1
20260903084550 26 49 3.2 6.4 0.00 0.00 0.00 82 1012.2
20260903083026 27 344 1.6 6.4 0.00 0.00 0.00 81 1012.2
20260903081516 27 21 3.2 8.0 0.00 0.00 0.00 80 1012.3
20260903080154 27 45 3.2 11.3 0.00 0.00 0.00 78 1012.4
20260903074535 28 49 6.4 9.7 0.00 0.00 0.00 75 1012.3
20260903073014 28 71 1.6 8.0 0.00 0.00 0.00 75 1012.3
20260903071605 28 98 0.0 6.4 0.00 0.00 0.00 76 1012.3
20260903070009 28 58 1.6 4.8 0.00 0.00 0.00 76 1012.6
20260903064552 28 57 1.6 6.4 0.00 0.10 0.00 76 1012.7
20260903063010 28 54 3.2 6.4 0.00 0.10 0.00 75 1012.8
20260903061544 28 329 1.6 4.8 0.00 0.10 0.00 74 1012.9
20260903060133 28 331 3.2 4.8 0.00 0.10 0.00 75 1012.8
20260903054536 28 11 0.0 8.0 0.00 0.10 0.00 76 1012.9
20260903053012 28 13 4.8 8.0 0.00 0.10 0.00 77 1012.9
20260903051600 28 351 3.2 8.0 0.00 0.10 0.00 77 1012.9
20260903050139 28 46 1.6 8.0 0.00 0.10 0.00 77 1013.0
20260903044515 27 17 1.6 9.7 0.00 0.10 0.00 77 1013.1
20260903043100 28 12 1.6 9.7 0.00 0.10 0.00 78 1013.1
20260903043002 28 13 3.2 12.9 0.00 0.10 0.00 78 1013.1
20260903041544 27 26 3.2 16.1 0.00 0.10 0.00 78 1013.3
20260903040133 27 45 3.2 17.7 0.00 0.10 0.00 79 1013.4
20260903034508 27 50 4.8 14.5 0.00 0.10 0.00 81 1013.5
20260903033059 27 23 9.7 16.1 0.00 0.10 0.00 81 1013.6
20260903031555 27 19 8.0 17.7 0.00 0.10 0.00 81 1013.6
20260903030142 27 30 6.4 19.3 0.00 0.10 0.00 81 1013.7
20260903024522 27 42 9.7 17.7 0.00 0.10 0.00 82 1013.4
20260903023015 27 48 8.0 19.3 0.00 0.10 0.00 82 1013.2
20260903021507 27 23 12.9 24.1 0.00 0.10 0.00 80 1013.0
20260903020148 28 16 9.7 19.3 0.00 0.10 0.00 78 1012.9
20260903014542 29 38 11.3 17.7 0.00 0.10 0.00 74 1012.8
20260903013008 30 36 12.9 25.7 0.00 0.10 0.00 70 1012.7
20260903011545 31 28 11.3 20.9 0.00 0.10 0.00 68 1012.6
20260903010138 32 9 6.4 16.1 0.00 0.10 0.00 65 1012.6
20260903004527 32 248 1.6 8.0 0.00 0.10 0.00 73 1012.5
20260903003014 32 232 3.2 12.9 0.00 0.10 0.00 73 1012.3
20260903001602 33 219 0.0 8.0 0.00 0.10 0.00 70 1012.2
20260903000023 33 226 3.2 11.3 0.00 0.10 0.00 70 1012.2
20260902234602 32 217 6.4 11.3 0.00 0.10 0.00 71 1012.0
20260902233047 33 263 3.2 16.1 0.00 0.10 0.00 71 1011.6
20260902231543 33 192 6.4 16.1 0.00 0.10 0.00 70 1011.2
20260902230006 33 188 9.7 16.1 0.00 0.10 0.00 70 1011.0
20260902224504 33 222 6.4 17.7 0.00 0.10 0.00 70 1011.0
20260902223104 33 216 8.0 19.3 0.00 0.10 0.00 68 1011.2
20260902221547 34 217 8.0 14.5 0.00 0.10 0.00 67 1011.3
20260902220144 34 187 4.8 17.7 0.00 0.10 0.00 66 1011.3
20260902214539 34 236 8.0 20.9 0.00 0.10 0.00 67 1011.2
20260902213038 33 232 11.3 19.3 0.00 0.10 0.00 68 1011.1
20260902211532 34 225 9.7 17.7 0.00 0.10 0.00 65 1011.2
20260902210132 34 254 6.4 16.1 0.00 0.10 0.00 66 1011.0
20260902204514 34 232 9.7 17.7 0.00 0.10 0.00 66 1011.0
20260902203010 34 225 11.3 19.3 0.00 0.10 0.00 66 1011.3
20260902201553 34 206 12.9 17.7 0.00 0.10 0.00 64 1011.6
20260902200136 34 259 8.0 14.5 0.00 0.10 0.00 66 1011.6
20260902194535 34 265 6.4 14.5 0.00 0.10 0.00 66 1011.8
20260902193013 34 284 4.8 14.5 0.00 0.10 0.00 67 1012.2
20260902191603 33 233 8.0 17.7 0.00 0.10 0.00 68 1012.3
20260902190148 33 286 11.3 20.9 0.00 0.10 0.00 68 1012.4
20260902184533 33 288 8.0 14.5 0.00 0.10 0.00 68 1012.5